RYR2LH LICC-LIMJ

Flight info

Callsign RYR2LH
Flight time 1h 30m
Altitude 38000
Route BUDIN DCT TAGEL DCT ELB DCT BETEN M729 IDONA
Aircraft B738/M-SDE2E3FGHIRWXY/LB1

Departure

Time 2026-04-21 17:38
Airport Catania-Fontanarossa Airport (LICC)

Arrival

Time 2026-04-21 19:09
Airport Genoa Cristoforo Colombo Airport (LIMJ)
Time Latitude Longitude Altitude Speed Heading
2026-04-21 17:13 37.46875 15.06092 50 ft 0 kts 354°
2026-04-21 17:30 37.46872 15.06092 50 ft 3 kts 353°
2026-04-21 17:30 37.46849 15.06097 47 ft 3 kts 341°
2026-04-21 17:30 37.46827 15.06110 46 ft 3 kts 324°
2026-04-21 17:30 37.46810 15.06129 48 ft 3 kts 300°
2026-04-21 17:31 37.46803 15.06154 50 ft 2 kts 264°
2026-04-21 17:31 37.46803 15.06156 50 ft 0 kts 264°
2026-04-21 17:34 37.46803 15.06155 50 ft 1 kts 264°
2026-04-21 17:35 37.46802 15.06147 50 ft 2 kts 264°
2026-04-21 17:35 37.46800 15.06119 49 ft 5 kts 264°
2026-04-21 17:35 37.46795 15.06061 50 ft 8 kts 264°
2026-04-21 17:35 37.46788 15.05978 50 ft 11 kts 264°
2026-04-21 17:36 37.46780 15.05874 50 ft 13 kts 264°
2026-04-21 17:36 37.46770 15.05753 50 ft 14 kts 264°
2026-04-21 17:36 37.46760 15.05634 50 ft 14 kts 263°
2026-04-21 17:36 37.46744 15.05524 48 ft 12 kts 247°
2026-04-21 17:37 37.46681 15.05464 48 ft 12 kts 188°
2026-04-21 17:37 37.46605 15.05492 50 ft 11 kts 152°
2026-04-21 17:37 37.46585 15.05520 49 ft 2 kts 85°
2026-04-21 17:37 37.46585 15.05523 49 ft 2 kts 86°
2026-04-21 17:38 37.46611 15.05836 50 ft 74 kts 83°
2026-04-21 17:38 37.46690 15.06777 51 ft 140 kts 84°
2026-04-21 17:38 37.46787 15.08180 388 ft 168 kts 83°
2026-04-21 17:38 37.46917 15.09621 1287 ft 169 kts 79°
2026-04-21 17:39 37.47153 15.11195 1680 ft 199 kts 79°
2026-04-21 17:39 37.47425 15.13021 2030 ft 223 kts 79°
2026-04-21 17:39 37.47715 15.15011 2446 ft 242 kts 79°
2026-04-21 17:39 37.48031 15.17213 2796 ft 265 kts 79°
2026-04-21 17:40 37.48349 15.19505 3701 ft 263 kts 79°
2026-04-21 17:40 37.48652 15.21745 4731 ft 260 kts 79°
2026-04-21 17:40 37.48970 15.24037 5374 ft 272 kts 79°
2026-04-21 17:40 37.49297 15.26403 6171 ft 276 kts 79°
2026-04-21 17:41 37.49997 15.28661 6800 ft 283 kts 50°
2026-04-21 17:41 37.51560 15.30171 7356 ft 289 kts 17°
2026-04-21 17:41 37.53509 15.30408 8162 ft 282 kts 345°
2026-04-21 17:41 37.55377 15.29737 9123 ft 276 kts 342°
2026-04-21 17:42 37.57258 15.29209 10006 ft 278 kts 345°
2026-04-21 17:42 37.59175 15.28773 10756 ft 281 kts 346°
2026-04-21 17:42 37.61113 15.28347 11213 ft 297 kts 346°
2026-04-21 17:42 37.63256 15.27847 11437 ft 318 kts 346°
2026-04-21 17:43 37.65445 15.27324 11825 ft 334 kts 346°
2026-04-21 17:43 37.67790 15.26772 12091 ft 351 kts 346°
2026-04-21 17:43 37.70231 15.26207 12601 ft 360 kts 346°
2026-04-21 17:43 37.72731 15.25641 13221 ft 366 kts 346°
2026-04-21 17:44 37.75246 15.25066 13889 ft 369 kts 346°
2026-04-21 17:44 37.77757 15.24487 14695 ft 358 kts 346°
2026-04-21 17:44 37.80128 15.23942 15814 ft 342 kts 346°
2026-04-21 17:44 37.82051 15.23494 16048 ft 350 kts 346°
2026-04-21 17:45 37.84497 15.22918 16144 ft 363 kts 346°
2026-04-21 17:45 37.87025 15.22321 16243 ft 375 kts 346°
2026-04-21 17:45 37.89620 15.21709 16463 ft 382 kts 346°
2026-04-21 17:45 37.92237 15.21096 16893 ft 385 kts 346°
2026-04-21 17:46 37.94877 15.20476 17496 ft 387 kts 346°
2026-04-21 17:46 37.97532 15.19854 18177 ft 388 kts 346°
2026-04-21 17:46 38.00160 15.19237 18725 ft 390 kts 346°
2026-04-21 17:46 38.02878 15.18596 19243 ft 393 kts 346°
2026-04-21 17:47 38.05578 15.17960 19733 ft 396 kts 346°
2026-04-21 17:47 38.08263 15.17326 20244 ft 399 kts 346°
2026-04-21 17:47 38.11036 15.16673 20800 ft 401 kts 346°
2026-04-21 17:47 38.13747 15.16034 21327 ft 403 kts 346°
2026-04-21 17:48 38.15620 15.15591 21636 ft 406 kts 346°
2026-04-21 17:48 38.19326 15.14714 22230 ft 410 kts 346°
2026-04-21 17:48 38.22139 15.14048 22692 ft 413 kts 346°
2026-04-21 17:48 38.24971 15.13378 23146 ft 415 kts 346°
2026-04-21 17:49 38.27823 15.12702 23567 ft 418 kts 346°
2026-04-21 17:49 38.30684 15.12023 23936 ft 420 kts 346°
2026-04-21 17:49 38.33564 15.11337 24323 ft 422 kts 345°
2026-04-21 17:49 38.36456 15.10645 24709 ft 423 kts 345°
2026-04-21 17:50 38.39360 15.09952 25101 ft 425 kts 345°
2026-04-21 17:50 38.42240 15.09269 25457 ft 427 kts 345°
2026-04-21 17:50 38.45152 15.08480 25805 ft 426 kts 339°
2026-04-21 17:50 38.47916 15.07154 26153 ft 424 kts 332°
2026-04-21 17:51 38.50501 15.05370 26502 ft 421 kts 323°
2026-04-21 17:51 38.52878 15.03183 26860 ft 421 kts 320°
2026-04-21 17:51 38.55230 15.00941 27197 ft 423 kts 320°
2026-04-21 17:51 38.57587 14.98683 27526 ft 424 kts 320°
2026-04-21 17:52 38.59957 14.96416 27846 ft 426 kts 320°
2026-04-21 17:52 38.62331 14.94153 28188 ft 427 kts 320°
2026-04-21 17:52 38.64714 14.91890 28601 ft 426 kts 320°
2026-04-21 17:52 38.67090 14.89638 29077 ft 424 kts 320°
2026-04-21 17:53 38.69451 14.87403 29583 ft 420 kts 320°
2026-04-21 17:53 38.71795 14.85185 30099 ft 417 kts 320°
2026-04-21 17:53 38.74128 14.82975 30461 ft 416 kts 320°
2026-04-21 17:53 38.76455 14.80768 30764 ft 416 kts 320°
2026-04-21 17:54 38.78780 14.78560 31057 ft 416 kts 320°
2026-04-21 17:54 38.80318 14.77100 31275 ft 415 kts 320°
2026-04-21 17:54 38.82637 14.74895 31622 ft 414 kts 320°
2026-04-21 17:54 38.85700 14.71981 32072 ft 413 kts 320°
2026-04-21 17:55 38.87254 14.70501 32301 ft 412 kts 320°
2026-04-21 17:55 38.89556 14.68307 32675 ft 410 kts 320°
2026-04-21 17:55 38.91845 14.66126 33067 ft 408 kts 320°
2026-04-21 17:55 38.94121 14.63953 33370 ft 407 kts 320°
2026-04-21 17:56 38.96366 14.61807 33627 ft 408 kts 320°
2026-04-21 17:56 38.98641 14.59632 33915 ft 407 kts 320°
2026-04-21 17:56 39.00910 14.57461 34188 ft 406 kts 320°
2026-04-21 17:56 39.03176 14.55290 34412 ft 407 kts 320°
2026-04-21 17:57 39.05449 14.53112 34593 ft 407 kts 320°
2026-04-21 17:57 39.07724 14.50928 34808 ft 407 kts 320°
2026-04-21 17:57 39.09992 14.48751 35039 ft 407 kts 320°
2026-04-21 17:57 39.12265 14.46568 35235 ft 408 kts 320°
2026-04-21 17:58 39.14536 14.44384 35537 ft 406 kts 320°
2026-04-21 17:58 39.16788 14.42217 35978 ft 400 kts 319°
2026-04-21 17:58 39.18910 14.39962 36444 ft 392 kts 315°
2026-04-21 17:58 39.20933 14.37643 36834 ft 387 kts 316°
2026-04-21 17:59 39.23040 14.35465 37065 ft 388 kts 319°
2026-04-21 17:59 39.25226 14.33372 37070 ft 394 kts 320°
2026-04-21 17:59 39.29673 14.29216 37155 ft 401 kts 320°
2026-04-21 18:00 39.34210 14.24925 37265 ft 407 kts 320°
2026-04-21 18:00 39.36488 14.22746 37394 ft 408 kts 320°
2026-04-21 18:00 39.38768 14.20554 37617 ft 407 kts 320°
2026-04-21 18:01 39.41028 14.18375 37906 ft 404 kts 320°
2026-04-21 18:01 39.43292 14.16187 37904 ft 407 kts 319°
2026-04-21 18:01 39.47833 14.11787 37922 ft 408 kts 319°
2026-04-21 18:02 39.52359 14.07397 37924 ft 405 kts 319°
2026-04-21 18:02 39.56824 14.03059 37927 ft 402 kts 319°
2026-04-21 18:03 39.61290 13.98711 37924 ft 400 kts 319°
2026-04-21 18:03 39.65749 13.94363 37929 ft 400 kts 319°
2026-04-21 18:04 39.70196 13.90020 37929 ft 400 kts 319°
2026-04-21 18:04 39.74642 13.85670 37930 ft 400 kts 319°
2026-04-21 18:05 39.79088 13.81313 37926 ft 401 kts 319°
2026-04-21 18:05 39.83513 13.76970 37931 ft 402 kts 319°
2026-04-21 18:06 39.87983 13.72575 37931 ft 403 kts 319°
2026-04-21 18:06 39.92464 13.68163 37930 ft 404 kts 319°
2026-04-21 18:07 39.96949 13.63739 37929 ft 405 kts 319°
2026-04-21 18:07 40.01447 13.59294 37930 ft 406 kts 319°
2026-04-21 18:08 40.05948 13.54839 37925 ft 406 kts 319°
2026-04-21 18:08 40.10454 13.50372 37926 ft 407 kts 319°
2026-04-21 18:09 40.14956 13.45901 37935 ft 407 kts 319°
2026-04-21 18:09 40.19462 13.41418 37926 ft 406 kts 319°
2026-04-21 18:10 40.23946 13.36948 37926 ft 405 kts 319°
2026-04-21 18:10 40.28394 13.32509 37927 ft 404 kts 319°
2026-04-21 18:11 40.32741 13.27875 37928 ft 401 kts 316°
2026-04-21 18:11 40.36939 13.23058 37927 ft 400 kts 315°
2026-04-21 18:12 40.41121 13.18233 37936 ft 400 kts 315°
2026-04-21 18:12 40.45307 13.13423 37920 ft 399 kts 315°
2026-04-21 18:13 40.49486 13.08630 37922 ft 398 kts 315°
2026-04-21 18:13 40.53656 13.03844 37930 ft 398 kts 315°
2026-04-21 18:14 40.59878 12.96689 37933 ft 398 kts 315°
2026-04-21 18:15 40.64060 12.91869 37936 ft 399 kts 315°
2026-04-21 18:15 40.68208 12.87081 37935 ft 399 kts 315°
2026-04-21 18:16 40.72382 12.82254 37931 ft 399 kts 315°
2026-04-21 18:16 40.76560 12.77414 37932 ft 400 kts 315°
2026-04-21 18:17 40.80740 12.72564 37931 ft 400 kts 315°
2026-04-21 18:17 40.84919 12.67706 37931 ft 400 kts 315°
2026-04-21 18:18 40.89102 12.62835 37943 ft 401 kts 315°
2026-04-21 18:18 40.93256 12.57989 37931 ft 401 kts 315°
2026-04-21 18:19 40.97444 12.53096 37932 ft 401 kts 315°
2026-04-21 18:19 41.01627 12.48199 37935 ft 401 kts 315°
2026-04-21 18:20 41.05803 12.43302 37931 ft 400 kts 315°
2026-04-21 18:20 41.09941 12.38441 37924 ft 400 kts 315°
2026-04-21 18:21 41.14101 12.33545 37935 ft 400 kts 315°
2026-04-21 18:21 41.18265 12.28637 37928 ft 400 kts 315°
2026-04-21 18:22 41.22425 12.23723 37931 ft 399 kts 315°
2026-04-21 18:22 41.26573 12.18815 37931 ft 399 kts 315°
2026-04-21 18:23 41.30696 12.13929 37926 ft 399 kts 315°
2026-04-21 18:23 41.34836 12.09013 37930 ft 399 kts 315°
2026-04-21 18:24 41.38978 12.04086 37936 ft 399 kts 315°
2026-04-21 18:24 41.43114 11.99159 37933 ft 399 kts 315°
2026-04-21 18:25 41.47254 11.94217 37931 ft 399 kts 315°
2026-04-21 18:25 41.51387 11.89275 37931 ft 399 kts 315°
2026-04-21 18:26 41.55488 11.84362 37928 ft 399 kts 315°
2026-04-21 18:26 41.59620 11.79403 37946 ft 399 kts 315°
2026-04-21 18:27 41.63748 11.74440 37927 ft 399 kts 314°
2026-04-21 18:27 41.67870 11.69476 37926 ft 399 kts 314°
2026-04-21 18:28 41.71992 11.64503 37920 ft 399 kts 314°
2026-04-21 18:28 41.76109 11.59527 37930 ft 398 kts 314°
2026-04-21 18:29 41.80216 11.54553 37926 ft 398 kts 314°
2026-04-21 18:29 41.84326 11.49567 37939 ft 399 kts 314°
2026-04-21 18:30 41.88412 11.44600 37934 ft 399 kts 314°
2026-04-21 18:30 41.92522 11.39597 37932 ft 398 kts 314°
2026-04-21 18:31 41.96619 11.34599 37934 ft 398 kts 314°
2026-04-21 18:31 42.00713 11.29597 37905 ft 398 kts 314°
2026-04-21 18:32 42.04802 11.24592 37916 ft 397 kts 314°
2026-04-21 18:32 42.08888 11.19581 37934 ft 398 kts 314°
2026-04-21 18:33 42.12970 11.14565 37935 ft 397 kts 314°
2026-04-21 18:33 42.17055 11.09537 37931 ft 397 kts 314°
2026-04-21 18:34 42.21128 11.04514 37931 ft 397 kts 314°
2026-04-21 18:34 42.25197 10.99488 37932 ft 396 kts 314°
2026-04-21 18:35 42.28569 10.95315 37931 ft 396 kts 314°
2026-04-21 18:35 42.33290 10.89462 37933 ft 395 kts 314°
2026-04-21 18:36 42.37343 10.84427 37931 ft 395 kts 314°
2026-04-21 18:36 42.41391 10.79390 37932 ft 395 kts 314°
2026-04-21 18:37 42.45434 10.74349 37931 ft 395 kts 314°
2026-04-21 18:37 42.49478 10.69298 37931 ft 395 kts 314°
2026-04-21 18:38 42.53521 10.64239 37950 ft 395 kts 314°
2026-04-21 18:38 42.57562 10.59172 37935 ft 396 kts 314°
2026-04-21 18:39 42.61600 10.54099 37929 ft 395 kts 314°
2026-04-21 18:39 42.65640 10.49015 37725 ft 399 kts 314°
2026-04-21 18:39 42.67683 10.46440 37280 ft 400 kts 314°
2026-04-21 18:40 42.69690 10.43910 36733 ft 397 kts 314°
2026-04-21 18:40 42.71739 10.41333 36148 ft 396 kts 315°
2026-04-21 18:40 42.73147 10.39750 35788 ft 397 kts 319°
2026-04-21 18:40 42.76299 10.37097 35067 ft 400 kts 326°
2026-04-21 18:41 42.78746 10.35281 34426 ft 401 kts 327°
2026-04-21 18:41 42.81202 10.33455 33813 ft 401 kts 327°
2026-04-21 18:41 42.83602 10.31665 33343 ft 397 kts 327°
2026-04-21 18:41 42.86004 10.29865 32872 ft 392 kts 326°
2026-04-21 18:42 42.88383 10.28075 32437 ft 388 kts 326°
2026-04-21 18:42 42.90732 10.26302 32000 ft 384 kts 326°
2026-04-21 18:42 42.92304 10.25113 31704 ft 382 kts 326°
2026-04-21 18:42 42.95359 10.22797 31140 ft 377 kts 326°
2026-04-21 18:43 42.97639 10.21067 30732 ft 373 kts 326°
2026-04-21 18:43 42.99899 10.19350 30319 ft 371 kts 327°
2026-04-21 18:43 43.01429 10.18185 30055 ft 375 kts 327°
2026-04-21 18:43 43.04469 10.15868 29396 ft 377 kts 327°
2026-04-21 18:44 43.06010 10.14695 29087 ft 374 kts 327°
2026-04-21 18:44 43.08243 10.12995 28648 ft 370 kts 327°
2026-04-21 18:44 43.10481 10.11291 28230 ft 365 kts 327°
2026-04-21 18:44 43.12687 10.09608 27787 ft 362 kts 327°
2026-04-21 18:45 43.14879 10.07934 27376 ft 359 kts 327°
2026-04-21 18:45 43.17052 10.06272 26950 ft 356 kts 327°
2026-04-21 18:45 43.19205 10.04625 26550 ft 354 kts 327°
2026-04-21 18:45 43.21352 10.02980 26138 ft 354 kts 326°
2026-04-21 18:46 43.23503 10.01331 25723 ft 354 kts 326°
2026-04-21 18:46 43.25652 9.99682 25301 ft 352 kts 326°
2026-04-21 18:46 43.27781 9.98048 24890 ft 349 kts 326°
2026-04-21 18:46 43.29898 9.96423 24485 ft 347 kts 326°
2026-04-21 18:47 43.31994 9.94811 24076 ft 345 kts 326°
2026-04-21 18:47 43.34087 9.93201 23672 ft 343 kts 326°
2026-04-21 18:47 43.36160 9.91605 23219 ft 341 kts 326°
2026-04-21 18:47 43.38224 9.90014 22774 ft 338 kts 326°
2026-04-21 18:48 43.40268 9.88438 22354 ft 335 kts 326°
2026-04-21 18:48 43.42293 9.86874 21964 ft 332 kts 326°
2026-04-21 18:48 43.44307 9.85318 21561 ft 330 kts 326°
2026-04-21 18:48 43.46297 9.83779 21165 ft 327 kts 326°
2026-04-21 18:49 43.48248 9.82270 20775 ft 324 kts 326°
2026-04-21 18:49 43.50208 9.80751 20397 ft 323 kts 327°
2026-04-21 18:49 43.51532 9.79726 20132 ft 323 kts 327°
2026-04-21 18:49 43.54124 9.77715 19636 ft 323 kts 327°
2026-04-21 18:50 43.56078 9.76201 19266 ft 322 kts 327°
2026-04-21 18:50 43.58035 9.74687 18890 ft 322 kts 327°
2026-04-21 18:50 43.59992 9.73174 18510 ft 322 kts 327°
2026-04-21 18:50 43.61947 9.71661 18127 ft 320 kts 327°
2026-04-21 18:51 43.63887 9.70160 17685 ft 319 kts 327°
2026-04-21 18:51 43.65814 9.68666 17271 ft 317 kts 327°
2026-04-21 18:51 43.67731 9.67179 16881 ft 314 kts 327°
2026-04-21 18:51 43.69632 9.65702 16495 ft 312 kts 327°
2026-04-21 18:52 43.71517 9.64237 16124 ft 310 kts 327°
2026-04-21 18:52 43.73378 9.62791 15953 ft 301 kts 327°
2026-04-21 18:52 43.75152 9.61413 15887 ft 291 kts 327°
2026-04-21 18:52 43.76894 9.60059 15734 ft 283 kts 327°
2026-04-21 18:53 43.78602 9.58726 15573 ft 279 kts 327°
2026-04-21 18:53 43.80290 9.57406 15426 ft 277 kts 327°
2026-04-21 18:53 43.81974 9.56086 15290 ft 280 kts 327°
2026-04-21 18:53 43.83683 9.54745 15158 ft 284 kts 327°
2026-04-21 18:54 43.85405 9.53394 15028 ft 283 kts 327°
2026-04-21 18:54 43.87115 9.52054 14964 ft 282 kts 327°
2026-04-21 18:54 43.88823 9.50713 14954 ft 282 kts 327°
2026-04-21 18:54 43.90513 9.49386 14951 ft 283 kts 327°
2026-04-21 18:55 43.91666 9.48480 14949 ft 283 kts 327°
2026-04-21 18:55 43.93936 9.46696 14947 ft 282 kts 327°
2026-04-21 18:55 43.95644 9.45352 14916 ft 280 kts 327°
2026-04-21 18:55 43.97331 9.44025 14727 ft 276 kts 327°
2026-04-21 18:56 43.98831 9.42421 14163 ft 273 kts 309°
2026-04-21 18:56 43.99953 9.40288 13547 ft 275 kts 303°
2026-04-21 18:56 44.01028 9.38080 12968 ft 275 kts 303°
2026-04-21 18:56 44.02100 9.35886 12437 ft 274 kts 303°
2026-04-21 18:57 44.03170 9.33762 12276 ft 260 kts 309°
2026-04-21 18:57 44.04497 9.32153 12172 ft 247 kts 321°
2026-04-21 18:57 44.05850 9.30764 11944 ft 238 kts 321°
2026-04-21 18:57 44.07329 9.29735 11483 ft 245 kts 345°
2026-04-21 18:58 44.09051 9.29801 11026 ft 254 kts 11°
2026-04-21 18:58 44.10643 9.30909 10612 ft 262 kts 37°
2026-04-21 18:58 44.11858 9.32824 10256 ft 264 kts 49°
2026-04-21 18:58 44.12966 9.34857 9899 ft 262 kts 47°
2026-04-21 18:59 44.14367 9.36352 9469 ft 250 kts 15°
2026-04-21 18:59 44.16033 9.36581 8976 ft 239 kts 348°
2026-04-21 18:59 44.17592 9.35858 8367 ft 236 kts 328°
2026-04-21 18:59 44.18879 9.34573 8193 ft 218 kts 321°
2026-04-21 19:00 44.20037 9.33340 8042 ft 201 kts 321°
2026-04-21 19:00 44.21116 9.32194 7785 ft 192 kts 321°
2026-04-21 19:00 44.22171 9.31067 7396 ft 191 kts 321°
2026-04-21 19:00 44.23231 9.29940 6988 ft 193 kts 322°
2026-04-21 19:01 44.24283 9.28824 6679 ft 192 kts 322°
2026-04-21 19:01 44.25337 9.27708 6481 ft 185 kts 322°
2026-04-21 19:01 44.26360 9.26625 6183 ft 185 kts 322°
2026-04-21 19:01 44.27375 9.25550 5937 ft 181 kts 322°
2026-04-21 19:02 44.28363 9.24504 5730 ft 181 kts 322°
2026-04-21 19:02 44.29373 9.23434 5555 ft 183 kts 322°
2026-04-21 19:02 44.30398 9.22351 5358 ft 186 kts 323°
2026-04-21 19:02 44.31428 9.21260 5142 ft 185 kts 323°
2026-04-21 19:03 44.32451 9.20179 4936 ft 184 kts 323°
2026-04-21 19:03 44.33420 9.19031 4713 ft 183 kts 307°
2026-04-21 19:03 44.33932 9.17411 4619 ft 183 kts 289°
2026-04-21 19:03 44.34354 9.15722 4583 ft 186 kts 289°
2026-04-21 19:04 44.34761 9.13972 4331 ft 190 kts 288°
2026-04-21 19:04 44.35150 9.12219 4066 ft 187 kts 287°
2026-04-21 19:04 44.35525 9.10492 3804 ft 184 kts 287°
2026-04-21 19:04 44.35892 9.08795 3551 ft 180 kts 287°
2026-04-21 19:05 44.36253 9.07125 3311 ft 179 kts 287°
2026-04-21 19:05 44.36615 9.05455 3057 ft 180 kts 287°
2026-04-21 19:05 44.36973 9.03805 2801 ft 180 kts 287°
2026-04-21 19:05 44.37335 9.02135 2542 ft 179 kts 287°
2026-04-21 19:06 44.37695 9.00474 2297 ft 178 kts 287°
2026-04-21 19:06 44.38054 8.98822 2046 ft 177 kts 287°
2026-04-21 19:06 44.38403 8.97217 1790 ft 168 kts 287°
2026-04-21 19:06 44.38728 8.95722 1561 ft 156 kts 286°
2026-04-21 19:07 44.39042 8.94278 1352 ft 156 kts 286°
2026-04-21 19:07 44.39360 8.92815 1136 ft 158 kts 286°
2026-04-21 19:07 44.39724 8.91358 909 ft 158 kts 290°
2026-04-21 19:07 44.40076 8.89909 669 ft 157 kts 287°
2026-04-21 19:08 44.40371 8.88450 466 ft 156 kts 283°
2026-04-21 19:08 44.40634 8.86987 267 ft 155 kts 285°
2026-04-21 19:08 44.40929 8.85520 48 ft 157 kts 285°
2026-04-21 19:08 44.41203 8.84140 23 ft 127 kts 285°
2026-04-21 19:09 44.41379 8.83245 21 ft 56 kts 285°
2026-04-21 19:09 44.41438 8.82946 22 ft 36 kts 285°
2026-04-21 19:09 44.41510 8.82580 16 ft 30 kts 287°
2026-04-21 19:09 44.41587 8.82491 14 ft 12 kts 11°
2026-04-21 19:10 44.41663 8.82546 16 ft 13 kts 66°
2026-04-21 19:10 44.41648 8.82664 16 ft 12 kts 106°
2026-04-21 19:10 44.41625 8.82779 18 ft 12 kts 105°
2026-04-21 19:10 44.41604 8.82892 19 ft 12 kts 105°
2026-04-21 19:11 44.41582 8.83001 21 ft 11 kts 105°
2026-04-21 19:11 44.41561 8.83107 23 ft 11 kts 105°
2026-04-21 19:11 44.41540 8.83213 26 ft 12 kts 105°
2026-04-21 19:11 44.41514 8.83345 24 ft 17 kts 105°
2026-04-21 19:12 44.41492 8.83458 21 ft 20 kts 105°
2026-04-21 19:12 44.41436 8.83744 18 ft 25 kts 105°
2026-04-21 19:12 44.41390 8.83979 18 ft 24 kts 105°
2026-04-21 19:12 44.41347 8.84198 15 ft 23 kts 105°
2026-04-21 19:13 44.41318 8.84347 17 ft 13 kts 105°
2026-04-21 19:13 44.41342 8.84457 17 ft 13 kts 52°
2026-04-21 19:13 44.41401 8.84567 17 ft 16 kts 53°
2026-04-21 19:13 44.41467 8.84687 17 ft 15 kts 52°
2026-04-21 19:14 44.41530 8.84802 17 ft 15 kts 52°
2026-04-21 19:14 44.41590 8.84904 17 ft 12 kts 48°
2026-04-21 19:14 44.41636 8.84978 17 ft 7 kts 54°
2026-04-21 19:14 44.41626 8.85016 17 ft 4 kts 164°
2026-04-21 19:15 44.41606 8.85012 17 ft 2 kts 193°
2026-04-21 19:15 44.41596 8.85009 17 ft 0 kts 194°